sat.trackr.live / text

‹ back to catalog

STARLINK-5751

NORAD 55576 · 2023-020H

PAYLOAD ACTIVE UNKNOWN

§ Identity

Operator
Country
US
Launch date
2023-02-12
Launch site
AFETR
Launch vehicle
Mass (kg)
RCS (m²)

Purposes: comms

External: N2YO · Heavens-Above · Gunter

§ Orbital elements

Epoch: 2026-05-24T19:41:38.118048Z

Period
94.27 min
Inclination
43.0014°
Eccentricity
0.0001457
Mean motion
15.27580649 rev/d
Perigee alt
482.0 km
Apogee alt
484.0 km
Semi-major
6,861.2 km
B*
-7.4109e-6
RAAN
269.4664°
Arg perigee
260.3624°
Mean anomaly
99.7063°
Rev number
18,085

§ Raw data

STARLINK-57511 55576U 23020H   26144.82058007 -.00000466  00000+0 -74109-5 0  99952 55576  43.0014 269.4664 0001457 260.3624  99.7063 15.27580649180852

JSON: /api/v1/satellites/55576 · /tle

For live sub-satellite position, see the globe view (requires WebGL).

§ Visibility from observer

Set your observer location to see the next 7 days of passes ≥ 10°. The values pass through the URL so the page stays shareable.

No JS? Fill the form by hand. The geolocation button needs JavaScript.